Temperature
13 12 11 11 12 11 11 14 14 15 15 16 16 14 11 7 4 2 1 1 1 0 -1 -1 -2 -2 -3 -4 -4 -5 -5 -6 -6 -7 -7 -8 -8 -9 -9 -10 -10 -11 -11 -11
12 10 9 10 11 10 10 11 12 12 13 15 13 8 7 6 3 2 2 2 1 0 -0 -1 -2 -2 -3 -4 -4 -5 -5 -6 -6 -7 -7 -8 -8 -9 -9 -10 -10 -11 -11 -11
15 12 11 14 14 10 10 10 11 12 15 14 10 8 8 6 4 4 3 2 2 1 -0 -1 -2 -2 -3 -4 -4 -5 -5 -6 -6 -7 -7 -7 -8 -9 -9 -10 -10 -10 -11 -11
12 14 14 18 12 11 11 11 10 11 13 12 10 8 6 6 6 5 4 3 2 1 -0 -1 -2 -2 -3 -4 -4 -5 -5 -6 -6 -6 -7 -7 -8 -8 -9 -9 -10 -10 -10 -11
11 14 15 16 10 9 10 13 13 11 11 11 6 4 7 8 7 6 5 3 2 1 -0 -1 -2 -2 -3 -3 -4 -5 -5 -5 -6 -6 -6 -7 -7 -8 -8 -9 -9 -10 -10 -11
9 12 14 18 10 8 10 13 14 11 11 9 4 9 11 9 8 6 4 3 1 0 -0 -1 -2 -2 -3 -3 -4 -4 -5 -5 -6 -6 -6 -7 -7 -8 -8 -8 -9 -9 -10 -10
10 11 14 14 7 8 13 18 15 13 12 8 6 9 9 8 7 5 4 2 1 0 -0 -1 -2 -2 -3 -3 -4 -4 -5 -5 -5 -6 -6 -6 -7 -7 -8 -8 -8 -9 -9 -10
10 10 13 10 7 11 16 16 15 14 13 12 11 10 8 7 6 5 4 2 1 0 -1 -1 -2 -2 -3 -3 -4 -4 -4 -5 -5 -5 -6 -6 -6 -7 -7 -8 -8 -9 -9 -10
11 15 15 11 13 16 15 15 15 14 13 12 10 9 8 7 6 5 4 2 1 0 -1 -1 -2 -2 -3 -3 -4 -4 -4 -5 -5 -5 -6 -6 -6 -6 -7 -7 -8 -9 -10 -10
9 11 12 11 13 15 15 15 15 14 12 11 10 10 9 7 6 5 3 2 1 0 -1 -1 -1 -2 -3 -3 -3 -4 -4 -5 -5 -5 -5 -6 -6 -6 -7 -7 -8 -9 -10 -10
10 12 12 14 17 18 18 17 16 15 14 12 11 10 9 8 6 5 4 3 1 0 -0 -1 -1 -2 -2 -3 -3 -4 -4 -4 -5 -5 -5 -5 -6 -6 -6 -7 -8 -9 -10 -11
15 17 15 17 18 17 17 16 16 15 14 13 11 10 9 8 6 5 4 3 2 1 -0 -1 -1 -2 -2 -3 -3 -4 -4 -4 -5 -5 -5 -5 -5 -5 -6 -7 -7 -8 -9 -10
17 17 17 17 17 17 16 16 15 14 13 12 11 10 8 7 6 5 4 3 2 1 0 -1 -1 -2 -2 -3 -3 -4 -4 -4 -5 -5 -5 -5 -5 -6 -6 -6 -7 -7 -8 -8
16 15 14 16 17 17 16 15 14 13 12 11 10 9 8 7 6 5 4 3 2 1 -0 -1 -1 -2 -2 -3 -3 -4 -4 -4 -5 -5 -5 -5 -6 -6 -6 -6 -7 -7 -7 -8
15 15 15 16 16 15 15 14 13 13 12 11 10 9 8 7 6 5 4 3 2 1 -0 -1 -1 -2 -2 -3 -3 -3 -4 -4 -5 -5 -5 -5 -6 -6 -6 -7 -7 -7 -7 -8
16 15 15 15 15 15 15 14 13 14 13 12 11 10 9 7 6 5 4 3 2 1 1 -0 -1 -1 -2 -2 -3 -3 -4 -4 -5 -5 -5 -6 -6 -6 -6 -7 -7 -8 -8 -8
14 14 14 14 15 16 15 15 15 14 13 12 11 10 8 7 6 5 4 3 2 2 1 0 -1 -2 -2 -2 -3 -3 -4 -4 -5 -5 -5 -6 -6 -6 -7 -7 -7 -8 -8 -9
14 15 16 16 16 16 16 16 16 15 14 13 11 9 8 7 6 5 4 3 2 1 0 -0 -1 -2 -2 -2 -3 -3 -4 -4 -5 -5 -5 -6 -6 -6 -7 -7 -7 -8 -8 -8
16 16 17 17 17 17 17 16 16 15 14 12 10 10 9 8 7 6 4 3 2 2 1 0 -1 -2 -2 -2 -3 -3 -4 -4 -5 -5 -5 -6 -6 -6 -7 -7 -8 -8 -8 -9
16 16 16 16 16 16 16 16 15 14 13 12 11 10 9 8 6 5 4 4 3 3 2 1 -1 -1 -2 -2 -3 -3 -4 -4 -5 -5 -5 -6 -6 -7 -7 -7 -8 -8 -8 -9
14 15 15 15 15 15 15 14 13 13 12 12 11 11 10 8 7 6 4 4 4 2 2 0 -0 -1 -2 -2 -3 -3 -4 -4 -5 -5 -5 -6 -6 -7 -7 -7 -8 -8 -8 -9
12 13 13 13 13 13 14 13 13 12 12 12 11 10 8 8 7 6 5 5 4 3 2 1 -0 -1 -1 -2 -3 -3 -3 -4 -4 -5 -5 -6 -6 -7 -7 -7 -8 -8 -8 -9
10 10 11 11 11 12 12 12 12 12 11 11 10 10 9 8 8 6 6 5 4 3 2 1 0 -0 -1 -2 -2 -3 -3 -4 -4 -5 -5 -6 -6 -7 -7 -7 -8 -8 -8 -9
9 9 9 9 9 10 10 11 11 11 11 10 9 8 8 8 7 6 6 6 4 3 2 1 0 -1 -1 -2 -2 -3 -3 -4 -4 -5 -5 -6 -6 -7 -7 -7 -8 -8 -8 -9
7 8 8 8 8 9 9 9 9 9 8 8 8 6 6 6 7 7 6 5 4 3 2 1 0 -1 -1 -2 -2 -2 -3 -3 -4 -5 -5 -6 -6 -7 -7 -8 -8 -8 -8 -9
6 6 6 7 7 7 7 7 8 7 7 7 7 6 5 5 5 5 5 4 4 3 2 1 0 -1 -1 -1 -2 -2 -3 -4 -4 -5 -5 -6 -6 -7 -7 -8 -8 -8 -8 -9
5 6 6 6 7 7 7 6 7 6 6 5 5 5 5 5 5 5 4 4 3 2 2 1 0 -0 -1 -1 -2 -2 -3 -3 -4 -4 -5 -6 -6 -7 -7 -7 -8 -8 -9 -9
Wind_Speed
9 7 6 9 12 13 15 12 11 12 14 21 18 14 10 7 10 12 14 14 14 12 10 9 7 6 5 5 5 6 7 9 9 10 10 11 11 12 12 13 13 14 14 15
5 3 5 8 14 15 17 13 16 20 21 19 11 5 6 8 12 15 16 16 14 13 11 10 8 6 5 5 5 6 7 9 9 10 10 11 11 12 12 13 13 13 14 14
4 2 6 9 10 13 9 12 12 12 11 5 6 8 8 10 14 16 16 16 15 14 12 10 8 7 6 5 5 6 8 8 9 9 10 11 11 12 12 13 13 13 13 13
4 5 7 2 3 8 9 11 15 15 17 13 11 8 8 10 13 15 15 15 15 13 11 10 8 6 5 5 6 7 8 8 8 9 10 11 11 12 12 12 12 12 13 13
2 4 9 5 5 7 7 10 13 18 19 12 2 5 8 12 14 14 15 14 13 12 11 9 8 7 5 6 6 7 8 8 8 9 10 11 11 12 12 12 12 12 12 13
4 4 7 3 5 5 3 7 8 13 13 7 4 5 4 7 12 12 12 12 12 12 11 10 8 7 6 6 7 7 7 8 9 9 10 11 11 12 11 11 11 12 12 12
7 7 10 2 8 8 4 5 5 10 10 10 10 8 1 7 11 12 13 13 13 12 11 10 9 8 7 7 7 7 7 8 9 9 9 10 11 10 11 11 11 11 12 12
7 7 9 8 11 11 9 1 5 7 9 12 13 6 6 9 11 14 14 14 14 12 11 9 9 8 8 8 6 6 7 8 9 9 8 8 10 10 10 10 11 11 11 12
12 11 2 13 13 9 3 6 7 7 9 11 11 10 10 10 13 14 15 14 14 12 11 9 10 9 9 7 5 5 7 8 8 9 8 8 9 10 9 9 8 9 10 11
8 14 12 14 18 17 15 15 13 10 9 11 12 12 13 12 13 15 15 15 14 13 12 11 10 10 9 6 5 6 7 7 7 8 8 8 7 7 7 7 8 10 10 11
11 12 11 13 17 21 18 17 16 14 13 14 14 14 15 14 15 15 15 14 14 13 13 12 11 10 9 7 6 6 7 6 7 6 7 7 7 7 8 7 8 11 10 10
15 11 10 13 7 7 12 15 16 14 14 14 15 15 15 15 15 15 15 15 14 14 13 12 11 10 9 8 7 6 6 6 5 5 6 6 7 8 7 8 12 12 12 13
20 10 11 14 10 8 11 13 13 14 14 14 15 15 15 13 14 15 15 17 17 16 14 12 11 10 9 9 8 7 6 5 5 5 5 6 6 7 9 9 10 9 11 14
19 11 12 14 16 14 13 11 9 11 13 13 13 14 14 13 14 16 18 18 17 15 14 13 12 11 10 10 9 8 7 6 6 5 5 5 6 6 7 8 10 9 10 12
20 18 19 17 15 10 8 8 10 12 13 13 13 14 16 17 17 18 17 16 15 15 14 13 13 12 11 10 10 9 7 5 5 5 5 5 5 6 6 7 8 9 9 10
14 14 18 21 24 21 15 15 17 18 16 16 16 17 18 17 16 15 16 17 17 18 16 15 14 12 12 11 10 8 7 8 6 5 4 4 5 5 6 6 7 8 8 9
13 15 17 19 24 23 21 20 20 19 16 18 19 17 16 16 15 16 17 18 17 16 16 16 14 12 12 12 11 7 6 6 7 6 5 4 4 5 5 6 6 7 7 9
22 25 23 20 21 21 19 19 18 18 17 16 16 17 19 20 20 19 17 16 15 14 15 15 13 13 13 13 10 8 6 6 5 5 4 4 4 4 5 5 7 8 8 9
24 26 26 25 24 20 17 16 16 16 15 15 19 21 21 21 19 17 17 18 18 18 16 15 18 15 13 14 13 8 8 7 6 5 5 5 5 4 4 5 6 7 7 8
21 22 23 22 18 15 15 13 12 13 15 17 19 19 20 19 18 18 19 18 17 13 14 17 17 15 14 14 15 9 9 8 7 6 5 5 4 4 4 5 5 6 7 7
18 17 16 17 17 16 16 15 13 14 15 18 20 21 20 18 18 18 18 16 15 14 15 20 16 13 13 13 16 10 9 9 8 7 6 5 5 4 4 4 5 5 6 7
13 14 16 15 16 16 12 10 12 13 15 18 19 17 16 18 19 19 18 13 14 20 16 14 13 16 18 17 12 11 10 10 8 7 6 6 5 4 4 4 4 5 5 6
15 14 14 13 13 12 9 9 12 14 16 18 19 20 21 18 17 16 16 13 12 22 17 14 17 23 24 16 12 12 11 11 9 8 7 6 6 5 4 4 4 4 5 6
14 14 11 10 8 8 10 10 11 11 13 14 15 16 17 15 14 15 8 18 22 23 15 18 25 26 25 13 12 12 11 11 10 9 8 7 6 5 5 4 4 4 5 6
12 11 10 9 9 10 10 7 7 10 11 11 13 15 15 13 12 13 12 16 24 23 15 19 27 27 20 13 13 12 11 11 10 9 8 7 7 6 5 5 4 4 5 5
11 11 10 10 9 9 7 7 8 8 9 10 10 11 12 11 10 11 12 15 20 22 16 13 17 21 16 14 13 13 11 11 11 10 9 8 8 7 6 5 6 5 5 5
11 10 8 9 9 9 8 8 9 10 10 11 10 11 12 12 12 13 14 14 15 16 14 13 14 16 15 14 13 12 11 10 10 10 9 8 7 7 6 6 5 4 4 5
Wind_Direction
264 271 253 252 237 210 215 232 247 260 270 282 298 301 286 241 203 194 193 194 196 199 201 205 213 225 242 264 280 292 298 302 307 311 313 314 316 318 320 321 322 323 322 325
269 230 229 258 245 228 230 238 248 264 276 277 289 279 246 218 200 200 200 199 198 200 201 205 211 220 234 257 276 288 291 295 302 307 311 313 315 317 318 320 321 322 323 324
268 238 284 267 229 197 204 214 216 238 258 269 260 253 250 226 207 207 203 198 197 198 200 202 206 212 229 253 273 280 284 290 297 302 307 311 313 314 317 320 320 320 322 323
289 312 256 258 124 186 215 235 222 242 261 265 268 281 262 232 214 208 201 196 195 194 193 194 195 202 220 246 264 273 280 287 294 302 305 310 312 314 316 317 317 317 318 320
238 277 278 265 189 186 211 268 228 232 253 263 270 288 258 220 210 206 196 191 188 186 183 182 187 194 211 242 257 269 278 290 299 303 305 309 312 314 316 315 313 314 315 317
197 232 254 243 148 157 171 273 223 212 236 217 183 265 287 174 190 192 183 177 173 171 174 181 186 190 213 241 256 268 282 293 299 300 302 306 309 312 313 312 309 312 312 315
212 236 264 218 139 150 204 276 181 201 214 188 204 229 148 159 176 178 173 170 168 170 179 185 180 189 217 240 253 270 284 291 295 298 302 304 306 309 311 311 310 312 314 315
185 210 255 163 152 193 230 222 190 206 208 207 218 208 178 177 175 172 171 172 172 176 183 180 180 194 220 239 253 269 280 287 294 300 303 300 307 310 313 314 314 317 319 320
199 220 280 174 205 226 253 237 227 216 216 212 215 211 197 189 184 181 178 176 179 182 182 183 190 201 221 236 246 264 278 288 297 302 302 304 309 313 317 318 317 319 320 322
244 260 256 231 241 251 245 247 250 233 218 203 211 208 197 190 186 184 183 182 181 184 188 194 197 206 220 228 236 257 275 289 298 303 307 311 312 312 315 316 317 319 323 325
246 265 283 261 238 244 250 248 249 241 227 216 212 208 198 192 190 187 185 183 184 189 196 198 195 203 211 216 225 248 269 283 293 299 305 312 314 313 311 308 311 318 322 323
249 242 236 269 248 227 233 239 236 230 227 218 211 209 198 195 190 186 185 183 187 194 199 198 195 200 203 205 214 235 258 277 288 297 304 310 315 316 309 307 316 321 323 325
251 261 253 269 271 238 238 244 233 220 220 215 210 205 197 192 186 185 185 187 192 195 198 196 195 199 198 197 206 223 243 265 279 286 297 306 312 317 322 324 324 325 331 334
245 254 269 260 258 251 241 240 230 224 222 215 204 198 194 188 184 188 193 194 193 192 195 195 197 201 194 191 201 218 234 250 263 276 288 295 303 308 311 319 325 329 332 335
239 229 241 259 267 257 230 219 222 226 218 211 200 194 191 190 192 195 194 187 186 191 195 195 200 201 187 188 199 211 224 237 249 265 276 286 294 300 306 312 316 320 326 334
239 230 241 253 259 259 243 231 232 235 220 209 202 201 198 197 194 190 186 182 185 195 196 196 202 197 183 186 195 206 217 229 245 258 267 278 288 298 307 313 317 320 326 332
235 244 243 249 255 256 246 237 235 236 220 210 207 198 191 190 191 190 190 191 194 197 194 196 198 187 183 186 192 200 207 215 228 243 254 267 279 292 302 308 313 318 321 326
238 246 249 248 255 255 248 238 233 229 220 211 197 189 190 193 196 194 189 186 191 198 200 198 190 182 183 186 190 196 200 207 213 228 242 255 271 284 293 301 309 315 320 325
243 246 250 251 250 250 247 240 231 222 211 197 192 196 198 200 196 187 179 181 189 200 202 193 188 184 186 189 186 192 197 203 211 220 231 248 261 273 286 298 308 314 319 324
249 249 252 255 254 249 247 247 235 223 209 197 196 197 200 199 191 182 182 191 200 199 183 181 186 187 188 189 188 190 195 201 208 214 221 234 249 266 281 294 304 311 316 321
255 256 256 258 259 255 249 246 234 223 206 197 199 202 199 192 186 182 185 200 204 188 177 180 183 186 186 185 188 189 192 198 204 210 215 225 237 253 270 285 297 305 312 317
272 271 267 266 267 266 256 235 223 215 203 201 203 199 192 188 188 192 199 201 183 179 178 182 184 186 183 182 185 188 192 196 201 205 210 218 228 241 256 274 287 298 306 310
291 285 280 275 269 269 259 229 214 210 208 206 202 198 195 191 187 189 198 198 176 179 180 185 185 184 182 181 184 187 191 195 199 203 207 212 219 230 245 260 274 287 297 304
297 294 287 282 276 266 257 247 223 217 212 208 207 201 193 188 194 202 194 178 179 180 184 187 185 184 182 182 183 187 191 195 198 200 203 206 212 221 232 246 261 275 286 296
292 289 287 282 275 271 267 256 231 220 212 212 208 202 200 198 191 190 182 176 179 178 182 187 187 185 183 184 185 187 190 194 194 194 198 202 207 213 222 233 247 264 278 288
283 285 284 270 267 272 270 249 236 225 215 214 207 198 199 198 186 176 177 178 177 179 178 179 184 187 187 186 187 188 189 192 197 199 198 200 205 208 216 224 237 250 267 280
275 275 274 275 269 257 249 238 235 229 216 213 210 197 191 190 185 178 175 175 176 179 178 178 181 184 186 186 187 186 186 187 190 193 193 196 199 204 208 215 227 241 257 270
Height
1578 1580 1583 1580 1579 1582 1580 1571 1567 1552 1548 1539 1539 1541 1543 1543 1544 1545 1546 1548 1550 1553 1554 1555 1555 1554 1553 1552 1549 1546 1542 1539 1535 1530 1525 1520 1515 1509 1504 1498 1493 1487 1481 1476
1578 1580 1582 1578 1572 1574 1574 1571 1565 1557 1549 1536 1537 1538 1538 1539 1539 1539 1541 1543 1546 1548 1550 1550 1551 1550 1549 1548 1545 1543 1539 1535 1531 1527 1522 1517 1512 1507 1501 1496 1491 1485 1479 1474
1569 1574 1576 1561 1551 1562 1562 1558 1555 1549 1537 1533 1535 1534 1534 1533 1533 1533 1535 1538 1540 1543 1545 1546 1546 1546 1545 1544 1542 1539 1536 1532 1528 1524 1519 1514 1509 1504 1499 1493 1488 1483 1477 1472
1574 1569 1569 1540 1548 1549 1550 1546 1545 1539 1532 1531 1531 1530 1528 1527 1527 1528 1530 1533 1535 1538 1540 1541 1542 1542 1541 1540 1538 1536 1532 1529 1525 1521 1516 1511 1506 1501 1496 1491 1486 1480 1475 1470
1578 1566 1553 1541 1546 1548 1547 1537 1530 1532 1527 1526 1526 1526 1521 1520 1521 1523 1526 1529 1531 1534 1536 1537 1537 1538 1537 1536 1534 1532 1529 1526 1522 1518 1513 1508 1503 1498 1493 1488 1483 1478 1473 1468
1580 1571 1558 1532 1541 1543 1546 1535 1522 1523 1522 1523 1525 1523 1516 1516 1516 1519 1521 1524 1526 1529 1531 1532 1533 1533 1533 1532 1531 1528 1526 1523 1519 1515 1510 1506 1501 1496 1491 1486 1481 1476 1471 1466
1573 1568 1544 1532 1538 1543 1540 1521 1516 1515 1516 1517 1517 1516 1513 1512 1513 1515 1517 1519 1522 1524 1526 1528 1528 1529 1529 1528 1527 1525 1522 1519 1516 1512 1507 1503 1498 1493 1488 1483 1479 1474 1469 1464
1565 1565 1544 1531 1535 1532 1518 1511 1511 1511 1510 1510 1509 1508 1508 1508 1509 1510 1512 1514 1517 1519 1521 1523 1524 1525 1524 1524 1523 1521 1519 1516 1513 1509 1505 1500 1496 1491 1486 1481 1476 1471 1466 1462
1542 1530 1519 1519 1515 1512 1510 1508 1506 1505 1505 1505 1503 1502 1503 1503 1504 1506 1508 1510 1512 1514 1516 1518 1519 1520 1520 1520 1519 1517 1515 1513 1510 1507 1503 1498 1494 1489 1484 1479 1474 1469 1464 1460
1535 1519 1513 1512 1509 1507 1505 1502 1500 1499 1499 1498 1496 1496 1497 1497 1499 1500 1502 1504 1507 1509 1511 1513 1514 1515 1516 1515 1515 1514 1512 1510 1507 1504 1500 1496 1492 1487 1482 1476 1471 1467 1463 1458
1524 1512 1508 1502 1500 1499 1498 1496 1494 1492 1491 1490 1490 1489 1490 1491 1492 1494 1496 1499 1501 1503 1505 1507 1509 1510 1511 1511 1511 1510 1508 1506 1504 1501 1498 1494 1490 1485 1480 1475 1470 1466 1461 1456
1505 1500 1501 1496 1494 1493 1491 1488 1487 1485 1483 1482 1482 1482 1483 1484 1486 1488 1490 1492 1495 1497 1500 1502 1503 1505 1506 1506 1506 1506 1505 1503 1501 1498 1495 1492 1488 1484 1479 1475 1469 1464 1459 1454
1492 1492 1492 1488 1486 1484 1482 1480 1479 1477 1475 1475 1474 1475 1476 1477 1479 1481 1483 1486 1488 1491 1494 1496 1498 1499 1500 1501 1501 1501 1500 1499 1497 1495 1492 1489 1486 1482 1477 1474 1469 1463 1458 1453
1484 1486 1483 1479 1477 1475 1473 1471 1469 1467 1466 1466 1466 1467 1468 1469 1471 1473 1475 1479 1482 1485 1488 1490 1492 1493 1495 1496 1496 1496 1496 1495 1494 1492 1489 1486 1483 1479 1475 1470 1466 1461 1456 1451
1474 1475 1473 1469 1467 1464 1462 1460 1458 1456 1456 1456 1456 1457 1458 1460 1462 1465 1469 1472 1475 1478 1480 1483 1485 1487 1489 1490 1491 1491 1491 1491 1490 1488 1486 1484 1481 1477 1473 1469 1464 1459 1454 1449
1463 1463 1462 1460 1455 1453 1450 1448 1446 1444 1445 1445 1446 1447 1449 1452 1455 1458 1461 1464 1466 1468 1472 1475 1478 1481 1483 1484 1485 1486 1486 1486 1486 1485 1483 1481 1478 1475 1471 1467 1463 1458 1452 1447
1454 1451 1450 1448 1444 1441 1438 1436 1434 1433 1433 1433 1435 1438 1441 1443 1446 1448 1451 1455 1459 1462 1466 1469 1472 1475 1476 1478 1480 1481 1481 1482 1481 1481 1479 1477 1475 1472 1469 1465 1461 1456 1451 1446
1441 1438 1437 1436 1432 1429 1425 1424 1423 1422 1421 1423 1426 1427 1429 1431 1433 1437 1442 1447 1451 1454 1457 1461 1465 1467 1470 1472 1474 1475 1476 1477 1477 1476 1475 1474 1472 1470 1467 1463 1459 1455 1450 1445
1427 1426 1424 1422 1419 1417 1414 1412 1411 1411 1411 1412 1413 1414 1416 1420 1424 1429 1433 1437 1440 1443 1447 1453 1457 1460 1463 1465 1467 1469 1470 1471 1472 1472 1471 1470 1469 1466 1464 1461 1457 1453 1448 1444
1418 1416 1414 1410 1408 1405 1403 1402 1401 1401 1400 1401 1402 1403 1405 1408 1413 1418 1422 1425 1429 1434 1440 1445 1448 1452 1455 1458 1461 1462 1464 1465 1466 1467 1467 1466 1465 1463 1461 1458 1455 1451 1446 1442
1408 1406 1403 1400 1397 1395 1393 1392 1391 1390 1390 1390 1391 1391 1393 1398 1403 1407 1411 1415 1421 1428 1433 1437 1440 1444 1448 1451 1454 1456 1458 1460 1461 1461 1462 1461 1461 1459 1457 1455 1452 1448 1444 1440
1400 1397 1393 1390 1388 1385 1383 1381 1380 1379 1379 1378 1379 1382 1385 1388 1392 1396 1401 1406 1412 1418 1423 1427 1431 1436 1441 1444 1446 1449 1451 1453 1455 1456 1456 1457 1456 1455 1454 1452 1449 1446 1442 1438
1394 1390 1386 1383 1380 1376 1373 1371 1369 1368 1368 1368 1368 1369 1372 1376 1380 1385 1389 1397 1403 1409 1414 1419 1424 1429 1433 1436 1439 1442 1445 1447 1449 1450 1451 1451 1451 1451 1450 1448 1445 1443 1439 1435
1386 1383 1379 1376 1372 1368 1364 1362 1360 1358 1357 1357 1358 1361 1364 1367 1371 1378 1384 1390 1395 1401 1406 1411 1417 1422 1426 1428 1432 1435 1438 1440 1442 1444 1445 1446 1446 1446 1445 1444 1442 1439 1436 1433
1378 1375 1372 1369 1365 1361 1358 1354 1352 1349 1347 1347 1348 1351 1355 1359 1364 1369 1375 1381 1388 1394 1399 1404 1409 1414 1417 1421 1425 1428 1431 1434 1436 1438 1439 1440 1441 1441 1441 1440 1438 1436 1433 1430
1371 1368 1364 1361 1357 1354 1351 1347 1344 1341 1340 1339 1338 1341 1345 1350 1356 1361 1368 1374 1380 1385 1391 1396 1401 1405 1409 1413 1417 1421 1424 1427 1430 1432 1433 1435 1436 1436 1436 1435 1434 1432 1430 1427
1362 1359 1356 1352 1349 1347 1343 1340 1336 1333 1332 1331 1332 1333 1337 1342 1347 1352 1359 1365 1371 1377 1382 1388 1393 1397 1401 1406 1410 1414 1418 1421 1423 1425 1427 1429 1430 1431 1431 1431 1430 1429 1427 1424